FW3173 Weather Reports


time (UTC)temp
C
wind
direction
speed
KPH
gust
KPH
rain 1hr
cm
rain 24hr
cm
rain mn
cm
humidity
%
barometer
mb
20260508141558 6 304 8.0 16.1 0.00 2.18 0.00 98 1003.2
20260508140105 6 357 4.8 14.5 0.00 2.18 0.00 99 1003.3
20260508134551 6 317 6.4 16.1 0.00 2.18 0.00 99 1003.4
20260508133104 6 265 4.8 14.5 0.00 2.18 0.00 99 1003.4
20260508131550 6 250 4.8 12.9 0.00 2.18 0.00 99 1003.6
20260508130048 6 285 6.4 9.7 0.00 2.18 0.00 99 1003.4
20260508124548 5 254 3.2 8.0 0.00 2.18 0.00 99 1003.2
20260508123046 5 281 6.4 12.9 0.00 2.18 0.00 99 1003.1
20260508121547 5 244 4.8 9.7 0.00 2.18 0.00 98 1003.2
20260508120045 6 223 3.2 6.4 0.00 2.18 0.00 99 1003.3
20260508114543 6 180 0.0 6.4 0.00 2.18 0.00 99 1003.4
20260508113043 6 300 1.6 8.0 0.00 2.18 0.00 99 1003.3
20260508111546 6 302 1.6 4.8 0.00 2.18 0.00 99 1003.3
20260508110042 6 81 0.0 4.8 0.00 2.18 0.00 99 1003.3
20260508104542 6 81 0.0 3.2 0.00 2.18 0.00 100 1003.3
20260508103048 5 81 1.6 6.4 0.00 2.18 0.00 100 1003.4
20260508101545 5 56 0.0 3.2 0.00 2.18 0.00 99 1003.3
20260508100040 5 56 0.0 4.8 0.00 2.18 0.00 99 1003.4
20260508094538 4 301 0.0 0.0 0.00 2.18 0.00 99 1003.0
20260508093039 4 301 0.0 1.6 0.00 2.18 0.00 99 1003.2
20260508091537 4 301 0.0 3.2 0.00 2.18 0.00 99 1002.9
20260508090038 4 301 0.0 1.6 0.00 2.18 0.00 99 1002.5
20260508084534 4 301 0.0 0.0 0.00 2.18 0.00 99 1002.9
20260508083040 4 301 0.0 1.6 0.00 2.18 0.00 99 1002.9
20260508081532 5 301 0.0 3.2 0.00 2.18 0.00 99 1002.6
20260508080054 5 293 1.6 6.4 0.00 2.18 0.00 99 1002.5
20260508074528 5 326 1.6 4.8 0.00 2.18 0.00 99 1002.5
20260508073028 5 326 0.0 4.8 0.00 2.18 0.00 99 1002.5
20260508071529 5 345 1.6 6.4 0.00 2.18 0.00 99 1002.5
20260508070026 5 318 4.8 14.5 0.00 2.18 0.00 99 1002.9
20260508064538 5 319 3.2 8.0 0.00 2.18 0.00 99 1002.7
20260508063021 6 313 4.8 8.0 0.00 2.18 0.00 98 1003.0
20260508061520 7 352 1.6 6.4 0.00 2.18 0.00 99 1002.5
20260508060017 7 337 0.0 4.8 0.00 2.18 0.00 99 1002.8
20260508054532 7 333 1.6 6.4 0.00 2.18 0.00 99 1002.9
20260508053019 7 350 3.2 6.4 0.00 2.18 0.00 99 1002.9
20260508051515 6 348 0.0 3.2 0.00 2.18 0.00 99 1002.9
20260508050014 6 348 1.6 4.8 0.00 2.18 0.00 99 1002.8
20260508044512 7 346 3.2 6.4 0.00 2.18 0.00 99 1002.6
20260508043009 7 355 3.2 6.4 0.00 2.18 0.00 99 1002.6
20260508041507 7 57 1.6 4.8 0.00 2.18 0.00 99 1002.6
20260508040012 7 57 0.0 0.0 0.00 2.18 0.00 99 1003.0
20260508034504 8 57 0.0 0.0 0.00 2.18 0.00 99 1002.9
20260508033004 8 57 0.0 0.0 0.00 2.18 0.00 99 1002.9
20260508031559 8 57 0.0 0.0 0.00 2.18 0.00 99 1003.1
20260508030057 8 57 0.0 0.0 0.00 2.18 0.00 99 1003.1
20260508024555 8 57 0.0 0.0 0.00 2.18 2.18 99 1003.1
20260508023056 8 57 0.0 3.2 0.00 2.18 2.18 99 1003.2
20260508021555 8 57 1.6 4.8 0.00 2.18 2.18 99 1003.3
20260508020057 8 58 1.6 6.4 0.00 2.18 2.18 99 1003.5
20260508014554 8 69 3.2 8.0 0.03 2.18 2.18 99 1003.3
20260508013052 8 337 3.2 8.0 0.05 2.18 2.18 98 1003.7
20260508011551 9 318 3.2 14.5 0.05 2.18 2.18 99 1003.4
20260508010050 9 283 1.6 4.8 0.05 2.18 2.18 99 1003.0
20260508004552 8 283 1.6 6.4 0.05 2.16 2.16 99 1003.1
20260508003051 8 241 0.0 3.2 0.05 2.13 2.13 99 1003.2
20260508001548 8 241 0.0 3.2 0.05 2.13 2.13 99 1003.3
20260508000052 8 239 0.0 3.2 0.05 2.11 2.11 99 1003.2
20260507234554 8 239 1.6 4.8 0.05 2.11 2.11 98 1003.1
20260507233108 9 225 1.6 6.4 0.05 2.11 2.11 98 1003.2
20260507231547 9 223 0.0 11.3 0.03 2.06 2.06 98 1003.0
20260507230048 8 250 1.6 6.4 0.03 2.06 2.06 98 1002.9
20260507224541 10 248 4.8 11.3 0.03 2.06 2.06 98 1003.0
20260507223053 11 200 1.6 9.7 0.00 2.03 2.03 98 1002.9
20260507221542 11 160 4.8 14.5 0.00 2.03 2.03 98 1002.8
20260507220040 11 160 6.4 19.3 0.00 2.03 2.03 98 1002.7
20260507214539 11 142 6.4 16.1 0.00 2.03 2.03 98 1002.6
20260507213036 11 188 3.2 16.1 0.00 2.03 2.03 97 1002.5
20260507211546 12 211 3.2 6.4 0.00 2.03 2.03 98 1002.6
20260507210052 13 164 3.2 12.9 0.00 2.03 2.03 99 1002.2
20260507204542 12 121 4.8 9.7 0.03 2.03 2.03 99 1002.1
20260507203034 12 142 4.8 8.0 0.05 2.03 2.03 99 1002.1
20260507201533 12 173 4.8 17.7 0.08 2.03 2.03 98 1002.1
20260507200034 12 178 8.0 24.1 0.25 2.03 2.03 99 1001.6
20260507194542 12 105 6.4 16.1 0.38 2.03 2.03 99 1001.7
20260507193028 12 101 6.4 14.5 0.43 2.01 2.01 99 1002.3
20260507191526 11 162 6.4 16.1 0.51 1.96 1.96 99 1003.0
20260507190037 11 137 9.7 25.7 0.46 1.78 1.78 99 1003.7
20260507184526 11 149 9.7 20.9 0.48 1.65 1.65 98 1004.1
20260507183018 11 179 9.7 24.1 0.66 1.57 1.57 98 1004.7
20260507181517 11 129 11.3 22.5 0.91 1.42 1.42 98 1005.1
20260507180019 11 167 12.9 24.1 1.17 1.32 1.32 97 1005.0
20260507174514 11 150 11.3 24.1 1.14 1.14 1.14 97 1005.4
20260507173031 11 176 12.9 27.4 0.89 0.89 0.89 96 1005.6
20260507171510 12 204 9.7 24.1 0.51 0.51 0.51 95 1005.6
20260507170016 13 194 12.9 25.7 0.10 0.10 0.10 93 1004.8
20260507164519 13 136 16.1 33.8 0.00 0.00 0.00 90 1004.7
20260507163005 15 176 16.1 35.4 0.00 0.00 0.00 88 1004.7
20260507161503 15 133 19.3 43.5 0.00 0.00 0.00 87 1005.2
20260507160002 15 131 17.7 30.6 0.00 0.00 0.00 87 1005.3
20260507154601 15 134 22.5 45.1 0.00 0.00 0.00 87 1005.7
20260507153059 15 138 16.1 45.1 0.00 0.00 0.00 87 1006.0
20260507151557 15 130 22.5 48.3 0.00 0.00 0.00 87 1006.1
20260507150053 15 212 16.1 43.5 0.00 0.00 0.00 87 1007.0
20260507144553 15 222 20.9 46.7 0.00 0.00 0.00 86 1007.3